Location: Unspecified
(0.0000°N, 0.0000°E)
Time: 19:49:26
(UTC+02:00)

Meteor 2-8 Rocket - Visible Passes

Search period start: 28 March 2017 00:00
Search period end: 07 April 2017 00:00
Orbit: 936 x 958 km, 82.5° (Epoch: 26 March)

Date Brightness Start Highest point End Pass type
(mag) Time Alt. Az. Time Alt. Az. Time Alt. Az.
28 Mar 6.6 06:31:01 10° SSE 06:35:57 26° E 06:40:52 10° NE visible
29 Mar 5.4 06:47:02 10° SSE 06:52:50 48° E 06:58:36 10° NNE visible
30 Mar 4.4 07:03:39 10° S 07:09:43 87° E 07:15:45 10° N visible
31 Mar 7.5 05:40:53 10° ESE 05:42:04 11° E 05:43:14 10° E visible
31 Mar 4.6 07:20:44 10° SSW 07:26:35 52° W 07:32:25 10° NNW visible
01 Apr 6.7 05:54:32 10° SE 05:58:57 21° E 06:03:20 10° NE visible
02 Apr 5.7 06:10:16 10° SSE 06:15:51 38° E 06:21:22 10° NNE visible
03 Apr 4.6 06:26:41 10° S 06:32:42 71° E 06:38:42 10° N visible
04 Apr 4.3 06:43:36 10° SSW 06:49:35 65° W 06:55:33 10° N visible
05 Apr 6.9 05:18:14 10° SE 05:21:57 17° E 05:25:38 10° NE visible
05 Apr 4.9 07:01:02 10° SSW 07:06:27 35° W 07:11:53 10° NNW visible
06 Apr 6.0 05:33:35 10° SSE 05:38:50 31° E 05:44:03 10° NNE visible
06 Apr 5.6 07:19:13 10° SW 07:23:20 19° W 07:27:28 10° NW visible
